Wind_Speed
33 34 33 32 32 32 32 31 30 30 29 29 29 29 29 28 29 28 29 29 30 30 30 31 32 32 32 33 33 34 34 35 36 36 37 38 38 38 39 39 40 40 41
36 36 35 34 34 34 33 32 32 31 31 31 31 30 30 30 30 30 30 31 31 32 32 32 33 33 34 34 34 35 36 37 38 38 38 38 39 39 40 41 41 42 42
36 37 36 36 36 35 34 34 33 33 33 32 32 32 32 31 32 32 31 31 32 33 33 34 34 35 35 35 36 37 38 39 39 39 40 40 41 41 41 42 43 43 43
38 38 38 38 37 37 36 35 34 35 35 34 34 33 34 33 33 33 32 33 33 34 34 35 35 36 36 37 38 39 39 40 40 41 41 42 42 42 43 44 44 44 45
39 38 38 39 38 38 38 37 37 36 35 35 35 35 35 35 34 34 33 34 34 35 35 36 36 37 37 38 39 40 40 41 41 42 42 42 43 43 44 44 45 45 45
39 40 39 40 40 39 39 39 39 39 37 36 36 37 37 37 36 35 35 35 35 36 36 36 37 37 38 39 40 40 40 41 42 43 43 43 43 44 44 45 45 46 46
39 39 40 42 41 41 41 41 41 40 39 38 38 38 38 39 37 37 37 36 36 36 36 37 38 38 39 40 40 40 41 41 42 43 43 43 44 45 45 45 46 47 47
41 41 40 41 42 42 43 42 41 41 40 40 39 39 39 38 38 37 37 37 36 36 37 38 39 39 39 40 40 41 41 42 43 43 44 44 45 46 46 47 47 48 48
42 42 42 42 43 43 43 43 43 42 41 40 39 39 39 38 37 37 37 37 36 36 37 38 39 39 40 41 41 41 42 44 44 45 45 46 46 47 47 48 49 49 49
41 40 40 41 41 42 42 43 43 42 41 41 40 40 40 39 39 38 38 37 37 38 38 40 40 40 41 42 42 42 43 44 45 45 46 47 47 48 48 49 49 49 49
41 40 39 39 39 40 41 41 41 41 40 40 40 40 40 41 41 40 39 38 39 39 40 40 41 41 41 42 43 43 44 44 44 45 46 46 47 47 48 49 50 50 49
41 40 39 39 39 40 40 40 40 41 41 42 41 41 41 41 41 41 40 40 40 40 40 40 41 42 42 42 42 43 43 44 45 45 46 46 47 47 48 48 49 49 48
42 41 39 39 39 40 40 41 41 41 42 42 43 43 42 42 41 41 41 41 41 41 40 40 41 42 42 42 42 43 44 44 44 45 45 46 47 47 48 48 49 49 48
43 42 41 40 41 41 41 41 41 41 41 41 42 43 43 42 41 41 41 41 40 40 40 40 41 42 42 43 43 44 44 44 44 45 46 47 48 48 48 49 49 48 47
44 43 43 43 43 42 42 42 42 42 42 42 41 41 43 42 41 41 41 40 40 40 40 40 42 43 43 43 44 44 44 45 45 46 47 47 48 48 49 48 48 47 45
43 43 43 43 42 42 42 42 42 41 42 41 41 41 41 40 40 40 40 40 39 39 39 40 41 42 42 43 44 44 44 45 46 47 48 48 48 48 48 47 46 45 45
42 42 42 42 41 41 41 41 41 41 42 42 42 42 41 40 40 40 39 38 38 39 39 39 40 41 42 43 42 43 43 44 45 47 47 47 48 48 47 47 46 44 43
40 41 40 40 40 40 41 41 42 41 41 41 41 40 40 39 38 38 38 38 38 38 39 38 39 41 41 41 41 42 43 44 45 46 46 47 47 48 47 45 44 42 42
41 41 41 41 41 40 40 39 40 40 40 39 39 38 37 37 37 37 37 38 38 39 39 39 38 39 39 39 40 41 42 43 45 46 46 47 47 46 45 43 42 41 42
40 40 40 39 39 39 38 38 38 38 38 37 37 37 37 37 37 37 38 38 38 38 39 38 38 38 38 39 40 41 41 42 44 44 45 46 45 44 42 41 40 40 40
37 38 38 38 38 37 37 37 37 36 36 36 36 36 36 36 36 37 37 37 37 37 38 38 38 38 39 40 40 41 41 42 42 43 44 43 42 41 39 39 38 38 37
36 36 36 36 36 37 37 37 36 36 36 36 36 36 36 36 36 36 37 36 37 37 37 38 38 38 39 39 40 40 41 42 41 42 41 40 39 38 37 36 36 36 35
36 36 36 36 36 36 37 37 37 37 37 36 36 36 36 36 37 37 37 37 37 37 37 37 37 38 39 40 40 40 41 41 40 39 37 36 36 35 35 34 34 34 34
36 36 36 36 36 36 37 37 37 38 37 36 36 36 36 36 37 37 37 37 36 37 37 37 37 38 40 40 40 40 40 39 38 36 35 34 33 32 32 32 31 32 32
35 36 36 37 37 36 36 36 36 36 35 35 35 36 36 36 35 36 36 36 36 37 37 37 38 38 38 38 38 37 36 35 34 34 34 33 31 30 30 30 29 29 29
35 36 36 36 35 35 35 35 34 34 34 34 35 35 35 35 35 35 35 35 35 35 35 35 36 36 36 36 35 34 34 33 32 31 31 30 30 29 27 27 28 28 28
Wind_Direction
256 257 258 259 261 263 264 265 266 268 270 272 275 277 280 283 285 286 287 288 289 290 290 291 293 294 296 298 299 299 300 301 302 302 303 303 303 303 303 302 301 300 300
255 256 258 259 260 262 263 265 266 267 269 271 273 276 279 281 283 285 286 287 287 288 290 290 291 293 295 296 297 298 299 301 302 302 303 303 302 302 303 302 301 300 300
255 257 258 258 260 261 263 264 266 267 268 270 272 274 277 280 282 284 285 286 287 288 289 290 291 291 294 296 297 298 299 300 301 302 303 303 302 302 302 301 301 301 300
255 256 258 258 259 260 262 264 265 266 267 269 271 274 276 279 281 283 284 286 287 287 289 290 291 292 294 296 297 298 299 300 301 302 302 302 302 302 302 302 301 301 300
256 256 258 258 258 259 261 263 264 265 267 269 271 273 276 278 280 282 284 285 287 287 288 289 291 292 294 295 297 298 299 300 301 301 302 302 302 302 302 302 301 302 301
257 256 256 257 257 258 261 263 264 265 266 269 271 273 275 277 279 281 283 284 286 287 287 289 291 293 294 295 296 298 299 300 301 302 302 302 301 301 301 302 302 303 302
257 256 256 257 257 259 260 261 263 265 265 268 271 273 276 277 278 280 282 283 285 286 286 288 290 292 294 295 296 297 299 300 301 301 301 301 301 301 302 302 303 303 303
256 257 259 257 257 258 259 260 262 264 265 268 271 274 276 277 277 279 281 283 285 285 287 289 290 292 294 296 297 298 298 300 300 301 301 301 301 302 302 303 303 303 303
256 258 259 258 257 257 258 260 261 263 264 267 270 273 275 276 276 279 281 282 284 285 287 289 290 292 294 296 298 298 299 299 300 301 301 301 301 302 302 303 303 303 303
257 258 258 258 258 257 257 260 261 263 264 266 269 271 274 275 276 279 280 281 283 285 287 289 291 292 295 297 298 298 299 300 301 301 301 302 302 302 302 303 303 303 303
260 260 258 257 258 259 260 262 261 263 264 266 269 272 274 275 277 278 279 280 282 285 287 289 291 292 294 297 298 299 299 300 301 302 302 302 302 302 303 303 303 302 302
258 258 258 258 258 260 261 262 262 264 266 267 269 271 273 275 278 278 278 280 281 284 286 289 291 292 294 297 298 299 300 301 301 302 302 303 303 303 304 305 304 303 302
256 257 257 258 260 260 260 261 262 264 265 266 268 271 272 275 276 277 279 281 282 283 285 288 291 293 294 296 298 300 300 301 302 302 302 303 304 304 305 304 305 304 303
258 257 259 260 261 262 262 261 262 264 266 267 268 270 272 274 276 278 280 282 282 283 285 287 289 292 293 296 298 300 300 300 301 302 303 304 304 304 305 304 304 304 304
257 258 260 262 263 263 264 264 264 265 266 267 269 271 273 274 275 278 279 281 282 283 285 287 290 292 293 296 298 299 299 300 300 301 303 304 304 305 305 304 304 304 304
258 259 261 262 264 264 265 265 265 265 266 268 269 271 273 273 275 277 279 280 282 284 286 288 291 293 294 296 297 299 300 301 301 303 304 304 304 305 306 305 304 303 303
258 259 260 261 262 264 265 265 265 265 267 269 271 273 275 276 277 277 278 280 282 286 288 290 292 294 295 296 297 299 300 301 303 304 304 304 305 306 305 305 304 303 303
260 260 260 260 262 264 265 265 266 267 269 270 272 275 276 278 277 277 278 280 282 286 289 291 293 295 296 296 298 299 301 302 304 305 305 305 306 306 306 306 305 304 303
262 261 261 261 262 264 265 265 266 267 269 270 272 275 275 276 277 277 279 281 283 285 288 291 293 295 297 297 298 300 302 303 305 306 306 307 307 306 306 306 305 305 305
263 262 263 263 263 263 264 265 266 268 269 271 272 273 275 276 276 278 280 282 283 285 288 290 293 294 296 297 300 301 303 305 306 307 308 309 308 307 307 308 307 307 308
264 264 263 263 263 265 266 266 267 267 270 272 273 274 276 276 276 277 279 280 282 285 288 290 292 294 295 296 299 301 303 306 307 308 309 309 309 308 308 309 309 310 310
262 263 264 265 265 265 266 267 268 268 269 271 273 273 274 273 274 276 279 280 283 285 287 290 292 293 295 298 300 303 306 306 307 308 309 310 310 310 311 311 312 312 312
261 264 265 265 265 266 267 267 269 270 270 271 271 273 273 274 274 276 277 280 283 285 287 289 291 293 296 298 300 304 306 307 308 310 310 311 312 313 314 314 314 314 314
262 265 265 265 265 267 268 269 269 269 269 269 271 272 272 273 274 276 279 281 283 285 286 288 290 293 295 297 299 303 305 307 308 309 310 312 314 315 317 317 316 317 318
263 265 266 265 265 267 269 267 268 269 269 269 271 272 273 273 274 277 278 279 281 284 286 288 290 294 297 299 301 303 305 307 308 309 311 312 314 316 317 317 318 319 321
264 266 266 267 267 268 269 269 268 267 267 269 270 271 272 273 275 277 278 279 282 283 286 288 291 294 297 300 302 304 306 307 307 309 312 315 316 317 318 318 318 319 322
Height
5807 5809 5810 5811 5812 5813 5814 5815 5816 5817 5818 5818 5818 5818 5818 5818 5817 5817 5816 5815 5813 5812 5810 5809 5807 5805 5802 5800 5797 5795 5792 5789 5786 5783 5780 5777 5773 5769 5766 5762 5758 5755 5751
5799 5801 5802 5803 5804 5806 5807 5808 5809 5810 5811 5811 5811 5811 5811 5811 5811 5810 5809 5808 5807 5805 5804 5802 5800 5798 5796 5793 5791 5788 5785 5782 5779 5776 5772 5768 5765 5761 5757 5753 5749 5745 5741
5790 5792 5794 5795 5796 5798 5799 5800 5801 5802 5803 5804 5804 5804 5804 5804 5804 5804 5803 5801 5800 5798 5797 5795 5793 5791 5789 5786 5783 5781 5778 5774 5771 5768 5764 5760 5756 5752 5748 5744 5740 5736 5731
5781 5783 5785 5787 5788 5789 5791 5792 5793 5794 5795 5796 5797 5797 5797 5797 5797 5796 5795 5794 5793 5792 5790 5788 5786 5783 5781 5779 5776 5773 5770 5766 5763 5759 5755 5751 5747 5743 5739 5734 5730 5725 5721
5773 5774 5776 5778 5779 5781 5782 5784 5785 5786 5787 5788 5789 5789 5789 5789 5789 5789 5788 5787 5785 5784 5782 5780 5778 5776 5774 5771 5768 5765 5761 5758 5754 5750 5746 5742 5738 5733 5729 5724 5720 5715 5710
5764 5766 5767 5768 5770 5772 5774 5775 5777 5778 5779 5780 5781 5781 5781 5782 5781 5781 5780 5779 5778 5776 5775 5773 5770 5768 5765 5763 5760 5756 5753 5749 5745 5741 5737 5732 5728 5724 5719 5715 5710 5705 5699
5755 5756 5758 5759 5761 5763 5765 5767 5768 5770 5771 5772 5772 5773 5773 5773 5773 5773 5772 5771 5770 5768 5767 5765 5762 5760 5757 5754 5751 5748 5744 5740 5736 5732 5727 5723 5718 5714 5709 5704 5699 5694 5688
5747 5748 5749 5750 5752 5754 5756 5757 5759 5761 5762 5763 5764 5764 5765 5765 5765 5765 5764 5763 5762 5760 5758 5756 5754 5751 5749 5746 5742 5739 5735 5731 5727 5723 5718 5713 5709 5704 5699 5694 5688 5683 5677
5737 5738 5740 5741 5742 5744 5746 5748 5750 5751 5753 5754 5755 5756 5756 5757 5757 5757 5756 5755 5753 5752 5750 5748 5745 5742 5740 5737 5734 5730 5726 5722 5718 5713 5708 5703 5698 5693 5688 5683 5677 5671 5666
5727 5729 5731 5731 5733 5735 5737 5739 5741 5742 5743 5744 5745 5746 5747 5747 5748 5748 5748 5746 5745 5743 5741 5739 5736 5733 5731 5728 5724 5720 5716 5712 5708 5703 5698 5693 5688 5683 5677 5672 5666 5660 5654
5719 5720 5721 5723 5725 5727 5729 5730 5732 5733 5734 5735 5736 5737 5737 5738 5738 5738 5738 5737 5736 5734 5732 5730 5727 5724 5721 5718 5715 5711 5707 5703 5698 5693 5688 5683 5678 5672 5666 5660 5654 5648 5642
5710 5711 5712 5714 5716 5718 5720 5721 5723 5724 5725 5726 5727 5727 5728 5728 5728 5728 5728 5727 5726 5725 5723 5720 5717 5715 5712 5709 5705 5702 5697 5693 5688 5683 5678 5673 5667 5661 5656 5649 5643 5636 5630
5701 5702 5704 5706 5708 5709 5710 5712 5713 5715 5716 5717 5717 5718 5718 5718 5718 5718 5718 5717 5717 5715 5713 5711 5708 5705 5702 5699 5696 5692 5688 5683 5678 5673 5668 5662 5657 5651 5645 5638 5632 5625 5619
5691 5694 5695 5696 5698 5700 5701 5702 5704 5705 5706 5707 5708 5708 5709 5709 5709 5708 5708 5707 5707 5706 5704 5702 5699 5696 5693 5690 5686 5682 5678 5673 5668 5663 5657 5652 5646 5640 5634 5628 5621 5614 5608
5682 5684 5686 5687 5689 5690 5691 5693 5694 5695 5696 5697 5698 5698 5699 5699 5699 5698 5698 5697 5697 5696 5695 5693 5690 5687 5683 5680 5676 5672 5668 5663 5658 5652 5647 5641 5635 5629 5623 5616 5610 5603 5597
5672 5674 5676 5678 5679 5680 5682 5683 5684 5686 5687 5687 5688 5689 5689 5689 5689 5689 5688 5688 5687 5686 5685 5683 5681 5677 5674 5670 5666 5662 5657 5652 5647 5642 5636 5630 5624 5618 5612 5605 5599 5593 5587
5662 5665 5667 5668 5670 5671 5672 5673 5675 5676 5677 5678 5678 5679 5679 5679 5679 5679 5678 5678 5677 5676 5675 5673 5670 5667 5664 5660 5656 5652 5647 5642 5637 5631 5626 5620 5613 5607 5601 5594 5588 5582 5576
5653 5655 5657 5659 5660 5662 5663 5664 5665 5666 5667 5668 5669 5669 5670 5670 5670 5670 5669 5669 5668 5667 5665 5664 5661 5658 5654 5650 5647 5642 5638 5632 5627 5621 5615 5609 5603 5596 5590 5584 5578 5572 5566
5644 5645 5647 5649 5651 5652 5654 5654 5656 5657 5657 5658 5659 5660 5660 5660 5660 5660 5660 5659 5658 5657 5656 5654 5651 5648 5645 5641 5637 5633 5628 5622 5617 5611 5605 5599 5592 5586 5579 5573 5567 5561 5556
5635 5636 5638 5640 5641 5643 5644 5645 5646 5647 5648 5649 5650 5650 5651 5651 5651 5650 5650 5650 5649 5648 5646 5644 5642 5639 5636 5632 5628 5624 5619 5614 5608 5602 5595 5589 5582 5575 5569 5563 5558 5552 5546
5625 5627 5629 5630 5632 5633 5635 5636 5637 5638 5639 5640 5640 5641 5641 5641 5641 5641 5640 5640 5639 5638 5636 5634 5632 5629 5626 5623 5619 5615 5610 5605 5599 5593 5586 5580 5573 5567 5560 5554 5548 5542 5537
5617 5618 5620 5621 5622 5624 5625 5626 5628 5629 5630 5631 5631 5631 5631 5631 5631 5631 5631 5630 5629 5628 5626 5624 5622 5620 5616 5613 5609 5605 5600 5596 5591 5585 5578 5571 5564 5558 5552 5546 5540 5534 5529
5608 5609 5610 5612 5613 5614 5615 5617 5618 5619 5620 5621 5622 5622 5622 5622 5622 5621 5621 5620 5619 5618 5617 5615 5612 5609 5607 5604 5600 5596 5590 5585 5580 5574 5569 5564 5557 5551 5544 5538 5533 5527 5522
5599 5600 5601 5602 5603 5605 5605 5606 5607 5609 5610 5611 5612 5612 5612 5612 5612 5612 5611 5610 5609 5608 5607 5605 5603 5600 5597 5593 5590 5586 5581 5576 5571 5566 5561 5557 5551 5544 5538 5532 5527 5521 5516
5590 5591 5592 5593 5594 5595 5595 5596 5597 5598 5599 5601 5602 5602 5603 5603 5602 5602 5601 5601 5600 5598 5596 5594 5592 5590 5587 5583 5580 5576 5572 5568 5564 5559 5554 5550 5545 5540 5534 5528 5522 5516 5511
5580 5581 5582 5583 5584 5585 5586 5587 5588 5589 5590 5591 5592 5592 5592 5593 5592 5592 5592 5591 5590 5589 5587 5585 5583 5580 5577 5574 5571 5567 5564 5560 5556 5552 5548 5543 5538 5533 5530 5524 5517 5512 5506